User: anonymous   Login
Location: *
(40.4270°N, 9.4940°E)
Time: 22:54:38
(UTC+02:00)
Language:

ATLAS 5 CENTAUR R/B - Orbit

View from above orbital plane
View from above orbital plane
View from above satellite
View from above satellite

Ground track
Ground track

The orbit data is extracted from the following two-line orbital elements,

1 31702U 07027B   16266.15008523 0.00000185  00000-0  65778-4 0    08
2 31702  63.3712 283.7153 0247315   0.7391 359.1754 14.18505834    01
Epoch (UTC): 22 September 2016 03:36:07
Eccentricity: 0.0247315
inclination: 63.3712°
perigee height: 652 km
apogee height: 1008 km
right ascension of ascending node: 283.7153°
argument of perigee: 0.7391°
revolutions per day: 14.18505834
mean anomaly at epoch: 359.1754°
orbit number at epoch: 0

The dashed part of the orbit path shows where the satellite is in the earth's shadow,  

DLR